Estación de Lontue

Ultimos registro cada 15 minutos 50
Estación Fecha / Hora Temperatura Humedad Lluvia Velocidad Dirección Radiación Presion
50 Lontue 06-05-2026 12:15 13,6 91,5 1,8 4,6 341 26,9 990,6
49 Lontue 06-05-2026 12:00 13,8 89,4 0,6 4,9 344 16,9 990,6
48 Lontue 06-05-2026 11:45 13,9 88,8 0,2 5,3 343 8,1 990,6
47 Lontue 06-05-2026 11:30 13,8 89,5 0 5,7 338 23,1 990,5
46 Lontue 06-05-2026 11:15 13,7 92,3 0 5,7 330 36,9 990,5
45 Lontue 06-05-2026 11:00 13,4 93,5 0 5,3 321 23,1 990,3
44 Lontue 06-05-2026 10:45 13,1 93,9 0,2 3,4 327 64,4 990,3
43 Lontue 06-05-2026 10:30 12,7 93,7 0 1,5 343 56,9 990
42 Lontue 06-05-2026 10:15 12,3 93,5 0,2 1,1 355 23,1 989,8
41 Lontue 06-05-2026 10:00 12,2 93,2 1,2 0 320 24,4 989,9
40 Lontue 06-05-2026 09:45 12 93 1 0 340 10,6 989,7
39 Lontue 06-05-2026 09:30 11,7 92,2 1,6 0,8 10 6,9 989,6
38 Lontue 06-05-2026 09:15 11,8 91,1 1,4 1,5 6 14,4 989,4
37 Lontue 06-05-2026 09:00 12,3 90,3 0 3 345 4,4 989,3
36 Lontue 06-05-2026 08:45 12,1 90,5 0 1,9 1 9,4 989,1
35 Lontue 06-05-2026 08:30 11,9 90,4 0 1,9 4 73,1 989,1
34 Lontue 06-05-2026 08:15 11,7 90,1 0 1,9 357 50,6 989
33 Lontue 06-05-2026 08:00 11,7 89,6 0 1,9 336 5,6 988,9
32 Lontue 06-05-2026 07:45 11,6 89 0,4 2,3 334 3,1 989
31 Lontue 06-05-2026 07:30 11,8 87,4 0,2 3 341 0,6 989
30 Lontue 06-05-2026 07:15 12,2 84,8 0 3,8 337 0,6 988,4
29 Lontue 06-05-2026 07:00 12,6 81,9 0 3,4 345 0,6 988,6
28 Lontue 06-05-2026 06:45 12,3 83,2 0 2,3 326 0,6 988,5
27 Lontue 06-05-2026 06:30 12,3 82,9 0 3 330 0,6 988,5
26 Lontue 06-05-2026 06:15 12,1 83,4 0 3,4 358 0,6 988,1
25 Lontue 06-05-2026 06:00 11,8 84,7 0 2,7 10 0,6 988,2
24 Lontue 06-05-2026 05:45 11,5 84,8 0 0,4 37 0,6 988,3
23 Lontue 06-05-2026 05:30 11,5 86 0 0,8 29 0,6 988,2
22 Lontue 06-05-2026 05:15 9,7 86,4 0 0 28 0,6 988,2
21 Lontue 06-05-2026 05:00 11 86,2 0 0 28 0,6 988,4
20 Lontue 06-05-2026 04:45 11,1 86,7 0 0,4 25 0,6 988,3
19 Lontue 06-05-2026 04:30 11,2 86,9 0 0 25 0,6 988,4
18 Lontue 06-05-2026 04:15 10,6 87 0 0 28 0,6 988,4
17 Lontue 06-05-2026 04:00 11,1 87,8 0 0,4 18 0,6 988,4
16 Lontue 06-05-2026 03:45 11,2 88,9 0 0,4 44 0,6 988,6
15 Lontue 06-05-2026 03:30 10,9 88,6 0 1,1 63 0,6 988,9
14 Lontue 06-05-2026 03:15 10,9 88,9 0 1,9 65 0,6 988,8
13 Lontue 06-05-2026 03:00 10,9 89,7 0 1,5 53 0,6 988,9
12 Lontue 06-05-2026 02:45 10,8 90,2 0 1,1 39 0,6 988,9
11 Lontue 06-05-2026 02:30 11 89,4 0 1,5 32 0,6 989
10 Lontue 06-05-2026 02:15 11,4 88,8 0 1,1 20 0,6 989
9 Lontue 06-05-2026 02:00 11,6 88,6 0 0,8 17 0,6 989,1
8 Lontue 06-05-2026 01:45 11,5 88,3 0 0,8 10 0,6 989,1
7 Lontue 06-05-2026 01:30 11,5 87,8 0 0,8 341 0,6 989
6 Lontue 06-05-2026 01:15 11,8 87,3 0 1,1 341 0,6 988,9
5 Lontue 06-05-2026 01:00 11,8 86,9 0 1,1 343 0,6 989
4 Lontue 06-05-2026 00:45 11,8 87 0 1,5 350 0,6 988,8
3 Lontue 06-05-2026 00:30 12 86,7 0 2,3 355 0,6 989
2 Lontue 06-05-2026 00:15 12,4 85,7 0 1,9 350 0,6 989,2
1 Lontue 06-05-2026 00:00 12,5 85,3 0 2,3 3 0,6 989,3